Tracking 31013 objects as of 11-Jul-2025
HD Live streaming from Space Station
objects crossing your sky now

STARLINK-30144

Track STARLINK-30144 now!
10-day predictions
STARLINK-30144 is classified as:


NORAD ID: 56835
Int'l Code: 2023-079N
Perigee: 565.3 km
Apogee: 567.1 km
Inclination: 43.0 °
Period: 95.8 minutes
Semi major axis: 6937 km
RCS: Unknown
Launch date: June 4, 2023
Source: United States (US)
Launch site: AIR FORCE EASTERN TEST RANGE (AFETR)
Your satellite tracking list
Your tracking list is empty




NASA's NSSDC Master Catalog

Two Line Element Set (TLE):
1 56835U 23079N   25191.42708636  .00000375  00000-0  42800-4 0  9995
2 56835  43.0063 343.6049 0001301 266.6735  93.3959 15.02538205116449
Source of the keplerian elements: AFSPC